Change the Weather History Date:

Tuesday, September 3, 2013

  Actual Average Record
Temperature  
Mean Temperature 78 °F 62 °F  
Max Temperature 93 °F 77 °F 99 °F (2009)
Min Temperature 63 °F 46 °F 29 °F (1962)
Degree Days  
Heating Degree Days 0 5  
Month to date heating degree days 0 15  
Since 1 July heating degree days 18 98  
Cooling Degree Days 13 2  
Month to date cooling degree days 25 6  
Year to date cooling degree days 400 373  
Growing Degree Days 28 (Base 50)    
Moisture  
Dew Point 48 °F    
Average Humidity 37    
Maximum Humidity 52    
Minimum Humidity 22    
Precipitation  
Precipitation 0.00 in 0.04 in 1.00 in (1965)
Month to date precipitation T 0.11  
Year to date precipitation 15.10 8.78  
Snow  
Snow 0.00 in 0.00 in T in (1953)
Month to date snowfall 0.0 0.0  
Since 1 July snowfall 0.0 0.0  
Since 1 September snowfall 0.0 0.0  
Snow Depth 0.00 in    
Sea Level Pressure  
Sea Level Pressure 29.91 in    
Wind  
Wind Speed 9 mph (SW)    
Max Wind Speed 17 mph    
Max Gust Speed 23 mph    
Visibility 10 miles    
Events      
T = Trace of Precipitation, MM = Missing Value Source: NWS Daily Summary

Daily Weather History Graph

Daily Weather History Graph

Search for Another Location

Airport or City:

Trip Planner

Search our weather history database for the weather conditions in past years. The results will help you decide how hot, cold, wet, or windy it might be!

Date:

Astronomy

Sep. 03, 2013 Rise Set
Actual Time 6:39 AM MDT 7:56 PM MDT
Civil Twilight 6:07 AM MDT 8:28 PM MDT
Nautical Twilight 5:27 AM MDT 9:07 PM MDT
Astronomical Twilight 4:45 AM MDT 9:49 PM MDT
Moon 4:52 AM MDT (9/3) 6:46 PM MDT (9/3)
Length of Visible Light 14h 21m
Length of Day
13h 16m
Waning Crescent, 3% of the Moon is Illuminated
Sep 3
Waning Crescent
Sep 5
New
Sep 12
First Quarter
Sep 19
Full
Sep 26
Last Quarter

Hourly Weather History & Observations

Time (MDT) Temp. Dew Point Humidity Pressure Visibility Wind Dir Wind Speed Gust Speed Precip Events Conditions
12:53 AM 64.9 °F 46.9 °F 52% 29.79 in 10.0 mi WSW 10.4 mph - N/A   Clear
1:53 AM 64.9 °F 46.9 °F 52% 29.81 in 10.0 mi SW 10.4 mph - N/A   Clear
2:53 AM 64.9 °F 46.0 °F 50% 29.83 in 10.0 mi SW 15.0 mph - N/A   Clear
3:53 AM 64.0 °F 45.0 °F 50% 29.84 in 10.0 mi SW 15.0 mph - N/A   Clear
4:53 AM 64.9 °F 45.0 °F 48% 29.86 in 10.0 mi SW 15.0 mph - N/A   Clear
5:53 AM 66.0 °F 45.0 °F 47% 29.87 in 10.0 mi SW 13.8 mph - N/A   Clear
6:53 AM 64.0 °F 45.0 °F 50% 29.90 in 10.0 mi SW 13.8 mph - N/A   Clear
7:53 AM 64.9 °F 45.0 °F 48% 29.92 in 10.0 mi SW 13.8 mph - N/A   Clear
8:53 AM 71.1 °F 46.0 °F 41% 29.94 in 10.0 mi SW 12.7 mph - N/A   Clear
9:53 AM 73.9 °F 46.9 °F 38% 29.94 in 10.0 mi WSW 10.4 mph - N/A   Clear
10:53 AM 79.0 °F 46.9 °F 32% 29.94 in 10.0 mi Variable 5.8 mph - N/A   Clear
11:53 AM 82.0 °F 48.0 °F 30% 29.94 in 10.0 mi West 5.8 mph - N/A   Clear
12:53 PM 86.0 °F 48.0 °F 27% 29.94 in 10.0 mi Variable 5.8 mph - N/A   Clear
1:53 PM 88.0 °F 46.9 °F 24% 29.93 in 10.0 mi SW 3.5 mph - N/A   Clear
2:53 PM 90.0 °F 48.0 °F 24% 29.92 in 10.0 mi Variable 4.6 mph - N/A   Clear
3:53 PM 91.0 °F 48.0 °F 23% 29.91 in 10.0 mi Calm Calm - N/A   Clear
4:53 PM 93.0 °F 48.0 °F 21% 29.90 in 10.0 mi Variable 4.6 mph - N/A   Clear
5:53 PM 90.0 °F 50.0 °F 25% 29.91 in 10.0 mi Calm Calm - N/A   Clear
6:53 PM 89.1 °F 52.0 °F 28% 29.90 in 10.0 mi Calm Calm - N/A   Clear
7:53 PM 84.0 °F 48.0 °F 28% 29.92 in 10.0 mi NE 12.7 mph 21.9 mph N/A   Clear
8:53 PM 79.0 °F 48.9 °F 35% 29.94 in 10.0 mi NE 15.0 mph - N/A   Clear
9:53 PM 75.9 °F 51.1 °F 42% 29.96 in 10.0 mi ENE 12.7 mph - N/A   Clear
10:53 PM 73.9 °F 52.0 °F 46% 29.96 in 10.0 mi ENE 12.7 mph - N/A   Clear
11:53 PM 72.0 °F 52.0 °F 49% 29.97 in 10.0 mi ENE 9.2 mph - N/A   Clear